Location: Carrières
(48.9495°N, 2.0407°E)
Time: 18:16:46
(UTC+00:00)

Altair - Pass Details

Date: 28 April 2024
Orbit: 1502 x 1682 km, 47.2° (Epoch: 21 May)

Event Time Altitude Azimuth Distance (km) Brightness Sun altitude
Rises 00:51:11 0° 286° (WNW) 4,825 10.1 -25.3°
Reaches altitude 10° 00:56:39 10° 261° (W) 3,791 9.3 -25.1°
Enters shadow 00:57:33 11° 256° (WSW) 3,686 9.2 -25.0°
